Hourly Weather Godziszewo

Today, 23 January, Saturday

Time Temperature Precipitation Wind Pressure Humidity
00:00 +3°C° 0 mm 2 mps 742 mmHg 93%
01:00 +3°C° 0 mm 2 mps 742 mmHg 93%
02:00 +2°C° 0 mm 2 mps 742 mmHg 93%
03:00 +2°C° 0 mm 2 mps 742 mmHg 93%
04:00 +1°C° 0 mm 3 mps 741 mmHg 93%
05:00 +1°C° 0.1 mm 3 mps 741 mmHg 93%
06:00 0°C° 0.1 mm 4 mps 740 mmHg 93%
07:00 0°C° 0.1 mm 5 mps 740 mmHg 93%
08:00 0°C° 2.6 mm 5 mps 739 mmHg 94%
09:00 0°C° 2.6 mm 5 mps 738 mmHg 95%
10:00 +1°C° 2.6 mm 6 mps 738 mmHg 96%
11:00 +1°C° 0.7 mm 5 mps 737 mmHg 96%
12:00 +1°C° 0.7 mm 4 mps 737 mmHg 96%
13:00 +3°C° 0.7 mm 3 mps 736 mmHg 96%
14:00 +3°C° 0 mm 3 mps 736 mmHg 95%
15:00 +3°C° 0 mm 3 mps 736 mmHg 94%
16:00 +3°C° 0 mm 4 mps 736 mmHg 94%
17:00 +1°C° 0.1 mm 5 mps 737 mmHg 94%
18:00 +1°C° 0.1 mm 6 mps 737 mmHg 94%
19:00 -1°C° 0.1 mm 7 mps 738 mmHg 94%
20:00 -1°C° 0.1 mm 7 mps 738 mmHg 95%
21:00 -2°C° 0.1 mm 7 mps 739 mmHg 95%
22:00 -2°C° 0.1 mm 7 mps 739 mmHg 95%
23:00 -2°C° 0 mm 6 mps 740 mmHg 94%

Tomorrow, 24 January, Sunday

Time Temperature Precipitation Wind Pressure Humidity
00:00 -2°C° 0 mm 6 mps 740 mmHg 93%
01:00 -1°C° 0 mm 5 mps 741 mmHg 92%
02:00 -1°C° 0 mm 5 mps 741 mmHg 91%
03:00 -1°C° 0 mm 4 mps 741 mmHg 90%
04:00 -1°C° 0 mm 4 mps 741 mmHg 89%
05:00 0°C° 0 mm 3 mps 742 mmHg 90%
06:00 -1°C° 0 mm 3 mps 742 mmHg 91%
07:00 -1°C° 0 mm 2 mps 743 mmHg 92%
08:00 -1°C° 0 mm 3 mps 743 mmHg 91%
09:00 -1°C° 0 mm 3 mps 743 mmHg 90%
10:00 -1°C° 0 mm 3 mps 743 mmHg 89%
11:00 +1°C° 0 mm 2 mps 743 mmHg 86%
12:00 +1°C° 0 mm 2 mps 743 mmHg 83%
13:00 +2°C° 0 mm 2 mps 743 mmHg 80%
14:00 +2°C° 0 mm 2 mps 743 mmHg 82%
15:00 +2°C° 0 mm 1 mps 743 mmHg 84%
16:00 +2°C° 0 mm 1 mps 743 mmHg 86%
17:00 +2°C° 0 mm 1 mps 743 mmHg 87%
18:00 +1°C° 0 mm 1 mps 743 mmHg 87%
19:00 +1°C° 0 mm 1 mps 743 mmHg 88%
20:00 +1°C° 0 mm 1 mps 743 mmHg 87%
21:00 +1°C° 0 mm 1 mps 743 mmHg 87%
22:00 +1°C° 0 mm 1 mps 744 mmHg 86%
23:00 -1°C° 0 mm 2 mps 744 mmHg 88%

Day after tomorrow, 25 January, Monday

Time Temperature Precipitation Wind Pressure Humidity
00:00 -1°C° 0 mm 2 mps 744 mmHg 89%
01:00 -1°C° 0 mm 2 mps 744 mmHg 91%
02:00 -1°C° 0.1 mm 3 mps 744 mmHg 92%
03:00 -1°C° 0.1 mm 3 mps 745 mmHg 92%
04:00 -2°C° 0.1 mm 4 mps 745 mmHg 93%
05:00 -2°C° 0 mm 4 mps 745 mmHg 91%
06:00 -3°C° 0 mm 4 mps 746 mmHg 89%
07:00 -3°C° 0 mm 4 mps 746 mmHg 87%
08:00 -3°C° 0 mm 4 mps 746 mmHg 86%
09:00 -3°C° 0 mm 4 mps 747 mmHg 85%
10:00 -2°C° 0 mm 4 mps 747 mmHg 83%
11:00 -2°C° 0 mm 5 mps 747 mmHg 80%
12:00 -1°C° 0 mm 5 mps 748 mmHg 76%
13:00 0°C° 0 mm 5 mps 748 mmHg 73%
14:00 -1°C° 0 mm 5 mps 748 mmHg 75%
15:00 -1°C° 0 mm 4 mps 748 mmHg 77%
16:00 -1°C° 0 mm 4 mps 748 mmHg 79%
17:00 -2°C° 0 mm 4 mps 749 mmHg 80%
18:00 -2°C° 0 mm 4 mps 749 mmHg 81%
19:00 -3°C° 0 mm 4 mps 750 mmHg 82%
20:00 -3°C° 0 mm 4 mps 750 mmHg 82%
21:00 -3°C° 0 mm 4 mps 750 mmHg 81%
22:00 -3°C° 0 mm 4 mps 750 mmHg 80%
23:00 -3°C° 0 mm 4 mps 750 mmHg 80%

26 January, Tuesday

Time Temperature Precipitation Wind Pressure Humidity
00:00 -3°C° 0 mm 4 mps 750 mmHg 80%
01:00 -3°C° 0 mm 4 mps 750 mmHg 80%
02:00 -3°C° 0 mm 4 mps 750 mmHg 81%
03:00 -4°C° 0 mm 4 mps 751 mmHg 81%
04:00 -4°C° 0 mm 4 mps 751 mmHg 81%
05:00 -4°C° 0 mm 4 mps 751 mmHg 82%
06:00 -4°C° 0 mm 4 mps 751 mmHg 83%
07:00 -4°C° 0 mm 4 mps 751 mmHg 83%
08:00 -3°C° 0 mm 4 mps 752 mmHg 82%
09:00 -3°C° 0 mm 4 mps 752 mmHg 81%
10:00 -2°C° 0 mm 5 mps 752 mmHg 80%
11:00 -2°C° 0 mm 5 mps 753 mmHg 76%
12:00 -1°C° 0 mm 5 mps 753 mmHg 71%
13:00 -1°C° 0 mm 6 mps 753 mmHg 67%
14:00 -1°C° 0 mm 5 mps 753 mmHg 71%
15:00 -1°C° 0 mm 5 mps 753 mmHg 74%
16:00 -2°C° 0 mm 4 mps 753 mmHg 78%
17:00 -2°C° 0 mm 4 mps 753 mmHg 81%
18:00 -3°C° 0 mm 4 mps 753 mmHg 85%
19:00 -3°C° 0 mm 4 mps 754 mmHg 88%
20:00 -3°C° 0 mm 4 mps 754 mmHg 88%
21:00 -3°C° 0 mm 4 mps 753 mmHg 87%
22:00 -3°C° 0 mm 4 mps 753 mmHg 86%
23:00 -3°C° 0 mm 4 mps 753 mmHg 87%

27 January, Wednesday

Time Temperature Precipitation Wind Pressure Humidity
00:00 -2°C° 0 mm 4 mps 753 mmHg 87%
01:00 -2°C° 0 mm 4 mps 752 mmHg 88%
02:00 -2°C° 0 mm 4 mps 752 mmHg 89%
03:00 -1°C° 0 mm 3 mps 752 mmHg 91%
04:00 -2°C° 0 mm 3 mps 751 mmHg 92%
05:00 -2°C° 0 mm 3 mps 751 mmHg 92%
06:00 -2°C° 0 mm 2 mps 751 mmHg 92%
07:00 -2°C° 0 mm 2 mps 750 mmHg 92%
08:00 -1°C° 0 mm 2 mps 750 mmHg 87%
09:00 -1°C° 0 mm 2 mps 750 mmHg 83%
10:00 +1°C° 0 mm 2 mps 750 mmHg 79%
11:00 +1°C° 0 mm 2 mps 750 mmHg 79%
12:00 +2°C° 0 mm 1 mps 750 mmHg 80%
13:00 +3°C° 0 mm 1 mps 750 mmHg 80%
14:00 +2°C° 0 mm 1 mps 750 mmHg 83%
15:00 +1°C° 0 mm 0 mps 751 mmHg 87%
16:00 +1°C° 0 mm 0 mps 751 mmHg 90%
17:00 +1°C° 0 mm 1 mps 752 mmHg 91%
18:00 +1°C° 0 mm 1 mps 752 mmHg 92%
19:00 -1°C° 0 mm 2 mps 753 mmHg 93%
20:00 -1°C° 0 mm 2 mps 753 mmHg 94%
21:00 -1°C° 0 mm 2 mps 754 mmHg 94%
22:00 -2°C° 0 mm 3 mps 754 mmHg 95%
23:00 -1°C° 0 mm 3 mps 754 mmHg 94%

28 January, Thursday

Time Temperature Precipitation Wind Pressure Humidity
00:00 -1°C° 0 mm 3 mps 754 mmHg 94%
01:00 -1°C° 0 mm 3 mps 754 mmHg 93%
02:00 -1°C° 0 mm 2 mps 754 mmHg 93%
03:00 -1°C° 0 mm 2 mps 754 mmHg 93%
04:00 -1°C° 0 mm 2 mps 754 mmHg 93%
05:00 -1°C° 0 mm 2 mps 754 mmHg 94%
06:00 -2°C° 0 mm 2 mps 753 mmHg 95%
07:00 -2°C° 0 mm 2 mps 753 mmHg 96%
08:00 -1°C° 0.2 mm 2 mps 752 mmHg 96%
09:00 -1°C° 0.2 mm 2 mps 752 mmHg 96%
10:00 +1°C° 0.2 mm 2 mps 752 mmHg 96%
11:00 +1°C° 0.3 mm 2 mps 751 mmHg 97%
12:00 +1°C° 0.3 mm 2 mps 750 mmHg 97%
13:00 +1°C° 0.3 mm 2 mps 750 mmHg 98%
14:00 +1°C° 0.3 mm 2 mps 749 mmHg 98%
15:00 +1°C° 0.3 mm 2 mps 749 mmHg 98%
16:00 +2°C° 0.3 mm 2 mps 748 mmHg 98%
17:00 +2°C° 0.5 mm 2 mps 748 mmHg 98%
18:00 +2°C° 0.5 mm 2 mps 748 mmHg 98%
19:00 +2°C° 0.5 mm 2 mps 748 mmHg 98%
Show more